Orbital Elements at Epoch 2459200.5 (2020-Dec-17.0) TDB
Reference: JPL 27 (heliocentric ecliptic J2000)
Element | Value | Uncertainty (1-sigma) | Units |
e | .1124337389659503 | 4.165e-08 | |
a | 3.064026244572524 | 2.3746e-08 | au |
q | 2.719526317605435 | 1.3516e-07 | au |
i | 8.864911073113511 | 5.2736e-06 | deg |
node | 292.3221607904684 | 2.9239e-05 | deg |
peri | 133.0604508564785 | 4.2786e-05 | deg |
M | 5.440874225746359 | 2.7534e-05 | deg |
tp | 2459170.892391187808 (2020-Nov-17.39239119) | 0.00014986 | TDB |
period | 1959.012234091324 5.36 | 2.2774e-05 6.235e-08 | d yr |
n | .1837660805456806 | 2.1363e-09 | deg/d |
Q | 3.408526171539612 | 2.6416e-08 | au |
|
| | Orbit Determination Parameters
Additional Information
|